Weather in Beketovka

Russia / Ulyanovsk Oblast     53°45′19″N   48°44′33″E
temp.,
°C
wind,
m/s
gust,
m/s
humid.,
%
clouds,
%
prec.,
mm/h
press.,
hPa
HPBL,
m
9 march, tue
tue901:00−9wnw6138627 0.0 1005340
04:00−13w449314 0.0 100884
07:00−14wnw33910 0.0 100922
10:00−10wsw12880 0.0 1010139
13:00−7wsw118246 0.0 1010464
16:00−7e118870 0.1 1009329
19:00−11nne2296100 0.1 101021
22:00−13nw349499 0.2 101167
10 march, wed
wed1001:00−13wnw379398 0.0 1011196
04:00−15nw5109285 0.1 1012242
07:00−17nw5129165 0.0 1013281
10:00−15nw7128972 0.1 1014496
13:00−15nw6108890 0.0 1015549
16:00−16nnw7118795 0.1 1017622
19:00−19nnw61291100 0.0 1018501
22:00−19nnw51293100 0.1 1021465
11 march, thu
thu1101:00−22nw499382 0.0 1022165
04:00−24nw359558 0.0 102475
07:00−24wnw359622 0.0 102570
10:00−19wnw5109145 0.0 1025403
13:00−15wnw578562 0.0 1025508
16:00−13nw578679 0.1 1025756
19:00−17nw3592100 0.0 102674
22:00−18wnw349578 0.0 102747
12 march, fri
fri1201:00−17wnw239655 0.0 102833
04:00−17wnw239668 0.0 102926
07:00−18wnw239633 0.0 103121
10:00−12wnw248916 0.0 1032206
13:00−8nw24750 0.0 1033432
16:00−7wnw237720 0.0 1032405
19:00−12wnw22840 0.0 103321
22:00−14w23850 0.0 103520
13 march, sat
sat1301:00−14wsw23850 0.0 103520
04:00−15wsw23850 0.0 103523
07:00−16wsw23860 0.0 103620
10:00−12sw34850 0.0 1036188
13:00−8ssw47840 0.0 1035369
16:00−8ssw59820 0.0 1034472
19:00−13ssw47920 0.0 1033117
22:00−16ssw479123 0.0 1033123